Rice Lake, WI

10:45 AM CDT on May 24, 2017 (GMT -0500)
Rice Lake Regional-Carl's

Weather History for KRPD - September, 2013

Change the Weather History Date:

Friday, September 13, 2013

  Actual Average Record
Temperature  
Mean Temperature 50 °F -  
Max Temperature 67 °F 70 °F 91 °F (1998)
Min Temperature 35 °F 49 °F 32 °F (2006)
Degree Days  
Heating Degree Days 14    
Moisture  
Dew Point 40 °F    
Average Humidity 71    
Maximum Humidity 99    
Minimum Humidity 33    
Precipitation  
Precipitation 0.00 in - - ()
Sea Level Pressure  
Sea Level Pressure 30.23 in    
Wind  
Wind Speed 1 mph (NNW)    
Max Wind Speed 8 mph    
Max Gust Speed -    
Visibility 8 miles    
Events Fog    
Averages and records for this station are not official NWS values.
T = Trace of Precipitation, MM = Missing Value Source: NWS Daily Summary

Daily Weather History Graph

Daily Weather History Graph

Search for Another Location

Airport or City:

Trip Planner

Search our weather history database for the weather conditions in past years. The results will help you decide how hot, cold, wet, or windy it might be!

Date:

Astronomy

Sep. 13, 2013 Rise Set
Actual Time 6:43 AM CDT 7:21 PM CDT
Civil Twilight 6:13 AM CDT 7:51 PM CDT
Nautical Twilight 5:38 AM CDT 8:26 PM CDT
Astronomical Twilight 5:01 AM CDT 9:03 PM CDT
Moon 3:23 PM CDT (9/13) 12:00 AM CDT (9/13)
Length of Visible Light 13h 37m
Length of Day
12h 38m
First Quarter, 61% of the Moon is Illuminated
Sep 13
First Quarter
Sep 19
Full
Sep 26
Last Quarter
Oct 4
New
Oct 11
First Quarter

Hourly Weather History & Observations

Time (CDT) Temp. Windchill Dew Point Humidity Pressure Visibility Wind Dir Wind Speed Gust Speed Precip Events Conditions
12:15 AM 44.8 °F - 43.0 °F 93% 30.25 in 10.0 mi Calm Calm - N/A   Clear
12:35 AM 44.6 °F - 43.0 °F 94% 30.25 in 10.0 mi Calm Calm - N/A   Clear
12:55 AM 43.5 °F - 42.1 °F 95% 30.26 in 10.0 mi Calm Calm - N/A   Clear
1:15 AM 42.6 °F - 41.5 °F 96% 30.26 in 10.0 mi Calm Calm - N/A   Clear
1:35 AM 42.3 °F - 41.0 °F 95% 30.26 in 10.0 mi Calm Calm - N/A   Clear
1:55 AM 42.8 °F - 41.9 °F 97% 30.26 in 7.0 mi Calm Calm - N/A   Clear
2:15 AM 42.1 °F - 41.0 °F 96% 30.26 in 4.0 mi Calm Calm - N/A   Clear
2:35 AM 40.6 °F - 39.7 °F 97% 30.26 in 1.0 mi Calm Calm - N/A   Mist
2:55 AM 41.4 °F - 40.6 °F 97% 30.26 in 5.0 mi Calm Calm - N/A   Clear
3:15 AM 41.5 °F - 41.0 °F 98% 30.26 in 10.0 mi Calm Calm - N/A   Clear
3:35 AM 39.6 °F - 38.8 °F 97% 30.26 in 7.0 mi Calm Calm - N/A   Clear
3:55 AM 39.6 °F - 38.8 °F 97% 30.26 in 1.0 mi Calm Calm - N/A   Mist
4:15 AM 39.4 °F - 38.8 °F 98% 30.26 in 1.0 mi Calm Calm - N/A   Mist
4:35 AM 39.4 °F - 38.8 °F 98% 30.26 in 0.5 mi Calm Calm - N/A Fog Fog
4:55 AM 38.3 °F - 37.8 °F 98% 30.27 in 0.2 mi Calm Calm - N/A Fog Fog
5:15 AM 37.2 °F - 36.5 °F 97% 30.28 in 0.2 mi Calm Calm - N/A Fog Fog
5:35 AM 37.4 °F - 36.9 °F 98% 30.28 in 0.8 mi Calm Calm - N/A   Mostly Cloudy
5:55 AM 36.9 °F - 36.5 °F 99% 30.28 in 7.0 mi Calm Calm - N/A   Scattered Clouds
6:15 AM 35.8 °F - 35.4 °F 99% 30.28 in 0.8 mi Calm Calm - N/A   Overcast
6:35 AM 37.0 °F - 36.7 °F 99% 30.28 in 10.0 mi Calm Calm - N/A   Mostly Cloudy
6:55 AM 36.5 °F - 36.1 °F 99% 30.29 in 0.2 mi Calm Calm - N/A Fog Fog
7:15 AM 36.5 °F - 36.3 °F 99% 30.29 in 0.2 mi Calm Calm - N/A Fog Fog
7:35 AM 37.8 °F - 37.4 °F 99% 30.29 in 0.2 mi Calm Calm - N/A Fog Fog
7:55 AM 39.7 °F - 39.2 °F 98% 30.30 in 0.2 mi Calm Calm - N/A Fog Fog
8:15 AM 42.8 °F - 42.1 °F 97% 30.30 in 1.5 mi Calm Calm - N/A   Overcast
8:35 AM 45.1 °F 43.7 °F 44.4 °F 97% 30.30 in 7.0 mi North 3.5 mph - N/A   Mostly Cloudy
8:55 AM 47.1 °F - 46.2 °F 97% 30.30 in 10.0 mi Calm Calm - N/A   Scattered Clouds
9:15 AM 49.1 °F - 48.2 °F 97% 30.30 in 10.0 mi Calm Calm - N/A   Clear
9:35 AM 52.3 °F - 45.7 °F 78% 30.30 in 10.0 mi Calm Calm - N/A   Clear
9:55 AM 55.4 °F - 43.7 °F 65% 30.30 in 10.0 mi Calm Calm - N/A   Clear
10:15 AM 56.5 °F - 42.6 °F 60% 30.30 in 10.0 mi Calm Calm - N/A   Clear
10:35 AM 57.6 °F - 42.3 °F 57% 30.30 in 10.0 mi Calm Calm - N/A   Clear
10:55 AM 59.0 °F - 41.9 °F 53% 30.30 in 10.0 mi NNW 4.6 mph - N/A   Scattered Clouds
11:15 AM 59.4 °F - 41.2 °F 51% 30.30 in 10.0 mi North 4.6 mph - N/A   Scattered Clouds
11:35 AM 58.8 °F - 41.0 °F 52% 30.29 in 10.0 mi North 4.6 mph - N/A   Scattered Clouds
11:55 AM 60.6 °F - 38.5 °F 44% 30.29 in 10.0 mi Calm Calm - N/A   Clear
12:15 PM 62.4 °F - 38.7 °F 41% 30.28 in 10.0 mi Calm Calm - N/A   Clear
12:35 PM 62.4 °F - 38.1 °F 41% 30.27 in 10.0 mi NNE 5.8 mph - N/A   Clear
12:55 PM 63.0 °F - 38.1 °F 40% 30.26 in 10.0 mi NNW 5.8 mph - N/A   Clear
1:15 PM 64.2 °F - 38.3 °F 38% 30.26 in 10.0 mi NE 5.8 mph - N/A   Scattered Clouds
1:35 PM 63.9 °F - 38.1 °F 39% 30.24 in 10.0 mi Calm Calm - N/A   Scattered Clouds
1:55 PM 63.0 °F - 36.7 °F 38% 30.24 in 10.0 mi Calm Calm - N/A   Scattered Clouds
2:15 PM 66.2 °F - 37.4 °F 35% 30.23 in 10.0 mi NNW 8.1 mph - N/A   Scattered Clouds
2:35 PM 66.0 °F - 36.0 °F 33% 30.23 in 10.0 mi Calm Calm - N/A   Scattered Clouds
2:55 PM 66.4 °F - 36.7 °F 33% 30.21 in 10.0 mi NNE 6.9 mph - N/A   Scattered Clouds
3:15 PM 64.8 °F - 36.1 °F 35% 30.21 in 10.0 mi Calm Calm - N/A   Scattered Clouds
3:35 PM 66.6 °F - 36.9 °F 33% 30.20 in 10.0 mi NW 4.6 mph - N/A   Clear
3:55 PM 66.7 °F - 37.0 °F 33% 30.19 in 10.0 mi Calm Calm - N/A   Clear
4:15 PM 66.6 °F - 36.7 °F 33% 30.18 in 10.0 mi Calm Calm - N/A   Clear
4:35 PM 66.6 °F - 37.2 °F 34% 30.18 in 10.0 mi West 4.6 mph - N/A   Clear
4:55 PM 66.6 °F - 36.9 °F 33% 30.18 in 10.0 mi Calm Calm - N/A   Clear
5:15 PM 66.0 °F - 36.7 °F 34% 30.17 in 10.0 mi West 3.5 mph - N/A   Clear
5:35 PM 66.6 °F - 37.0 °F 34% 30.17 in 10.0 mi Calm Calm - N/A   Clear
5:55 PM 66.4 °F - 37.9 °F 35% 30.17 in 10.0 mi Calm Calm - N/A   Clear
6:15 PM 65.5 °F - 37.8 °F 36% 30.16 in 10.0 mi Calm Calm - N/A   Clear
6:35 PM 64.9 °F - 38.5 °F 38% 30.16 in 10.0 mi West 3.5 mph - N/A   Clear
6:55 PM 63.7 °F - 39.9 °F 42% 30.16 in 10.0 mi Calm Calm - N/A   Clear
7:15 PM 61.5 °F - 39.7 °F 45% 30.16 in 10.0 mi South 3.5 mph - N/A   Clear
7:35 PM 58.3 °F - 42.8 °F 56% 30.15 in 10.0 mi Calm Calm - N/A   Clear
7:55 PM 55.8 °F - 42.4 °F 61% 30.15 in 10.0 mi Calm Calm - N/A   Clear
8:15 PM 54.3 °F - 41.9 °F 63% 30.15 in 10.0 mi Calm Calm - N/A   Clear
8:35 PM 51.6 °F - 44.4 °F 76% 30.15 in 10.0 mi Calm Calm - N/A   Clear
8:55 PM 50.5 °F - 44.4 °F 80% 30.14 in 10.0 mi Calm Calm - N/A   Clear
9:15 PM 50.0 °F - 45.3 °F 84% 30.14 in 10.0 mi Calm Calm - N/A   Clear
9:35 PM 50.2 °F - 42.4 °F 75% 30.14 in 10.0 mi Calm Calm - N/A   Clear
9:55 PM 47.8 °F - 45.0 °F 90% 30.14 in 10.0 mi Calm Calm - N/A   Clear
10:15 PM 46.0 °F - 43.3 °F 90% 30.14 in 10.0 mi Calm Calm - N/A   Clear
10:35 PM 45.5 °F - 43.0 °F 91% 30.14 in 10.0 mi Calm Calm - N/A   Clear
10:55 PM 45.3 °F - 43.5 °F 93% 30.14 in 10.0 mi Calm Calm - N/A   Clear
11:15 PM 44.8 °F - 43.3 °F 95% 30.14 in 10.0 mi Calm Calm - N/A   Clear
11:35 PM 43.9 °F - 42.1 °F 93% 30.14 in 10.0 mi Calm Calm - N/A   Clear
11:55 PM 42.8 °F - 41.4 °F 95% 30.13 in 10.0 mi Calm Calm - N/A   Clear